Location: Unspecified
(0.0000°N, 0.0000°E)
Time: 14:48:03
(UTC+00:00)

Altair - Pass Details

Date: 29 October 2021
Orbit: 1502 x 1682 km, 47.2° (Epoch: 26 November)

Event Time Altitude Azimuth Distance (km) Brightness Sun altitude
Rises 11:07:48 0° 304° (NW) 4,887 10.0 73.7°
Reaches altitude 10° 11:11:08 10° 298° (WNW) 3,916 9.6 74.2°
Maximum altitude 11:20:30 44° 230° (SW) 2,208 9.2 75.2°
Drops below altitude 10° 11:29:57 10° 161° (SSE) 3,930 10.0 76.0°
Sets 11:33:21 0° 154° (SSE) 4,906 10.3 76.1°
